time_stamp(utc),avg(mph),gust(mph),direction(deg),12m_air_temp(f),sonic_u(cm/s),sonic_v(cm/s),sonic_w(cm/s),pressure,2m_air_temp(f),pyranometer(W/m^2)
"2016-12-24 00:00:21+00",7.9,8.9,,40.5,-321,-103,8,1030.7,38.7,0
"2016-12-24 00:05:21+00",8.0,8.0,,40.7,-318,-82,5,1030.56,38.5,0
"2016-12-24 00:10:21+00",7.5,7.5,,40.5,-336,-154,7,1030.61,38.4,0
"2016-12-24 00:15:21+00",9.5,9.5,,40.2,-343,-226,10,1030.75,38.1,0
"2016-12-24 00:20:21+00",8.7,9.7,,39.8,-309,-216,12,1030.75,38,0
"2016-12-24 00:25:21+00",8.0,9.0,,39.5,-306,-181,6,1030.66,38,0
"2016-12-24 00:30:21+00",8.4,9.4,,39.3,-278,-224,4,1030.72,37.9,0
"2016-12-24 00:35:21+00",7.9,8.9,,39.3,-245,-259,-1,1030.64,37.9,0
"2016-12-24 00:40:21+00",8.7,9.7,,39.2,-311,-216,6,1030.54,37.9,0
"2016-12-24 00:45:21+00",10.5,12.5,,39.1,-380,-260,11,1030.6,37.8,0
"2016-12-24 00:50:21+00",8.0,9.0,,39.1,-313,-184,13,1030.44,37.8,0
"2016-12-24 00:55:21+00",10.3,11.3,,39.1,-361,-264,15,1030.5,37.7,0
"2016-12-24 01:00:21+00",8.6,10.6,,38.9,-339,-192,7,1030.39,37.6,0
"2016-12-24 01:05:21+00",10.7,11.7,,38.7,-369,-279,10,1030.58,37.6,0
"2016-12-24 01:10:21+00",10.4,12.4,,38.7,-390,-247,10,1030.61,37.5,0
"2016-12-24 01:15:21+00",9.5,11.5,,38.5,-345,-237,13,1030.71,37.5,0
"2016-12-24 01:20:21+00",8.5,9.5,,38.4,-334,-194,12,1030.75,37.5,0
"2016-12-24 01:25:21+00",9.2,10.2,,38.4,-337,-226,9,1030.83,37.4,0
"2016-12-24 01:30:21+00",6.6,7.6,,38.3,-250,-155,8,1030.68,37.3,0
"2016-12-24 01:35:21+00",7.4,8.4,,38.3,-259,-189,9,1030.68,37.3,0
"2016-12-24 01:40:21+00",8.4,9.4,,38.4,-264,-255,-3,1030.82,37.3,0
"2016-12-24 01:45:21+00",8.6,9.6,,38.7,-337,-193,9,1030.78,37.2,0
"2016-12-24 01:50:21+00",8.5,9.5,,38.7,-291,-218,5,1030.81,37.2,0
"2016-12-24 01:55:21+00",7.8,8.8,,38.5,-309,-167,5,1030.8,37.2,0
"2016-12-24 02:00:21+00",8.3,9.3,,38.4,-311,-181,6,1030.85,37.1,0
"2016-12-24 02:05:21+00",8.4,8.4,,38.4,-321,-186,8,1030.84,37,0
"2016-12-24 02:10:21+00",8.0,9.0,,38.7,-332,-172,3,1030.75,36.9,0
"2016-12-24 02:15:21+00",7.4,8.4,,38.5,-311,-158,4,1030.61,36.8,0
"2016-12-24 02:20:21+00",6.9,7.9,,38.3,-286,-145,4,1030.75,36.7,0
"2016-12-24 02:25:21+00",6.8,7.8,,38.4,-293,-132,2,1030.65,36.6,0
"2016-12-24 02:30:21+00",6.9,7.9,,38.3,-257,-157,3,1030.62,36.5,0
"2016-12-24 02:35:21+00",5.6,6.6,,38.1,-185,-143,-1,1030.47,36.5,0
"2016-12-24 02:40:21+00",6.1,7.1,,38,-192,-178,-2,1030.44,36.5,0
"2016-12-24 02:45:21+00",6.6,7.6,,38.2,-208,-199,-4,1030.38,36.4,0
"2016-12-24 02:50:21+00",7.1,7.1,,38.3,-226,-189,-1,1030.44,36.4,0
"2016-12-24 02:55:21+00",6.3,7.3,,38.4,-200,-197,-3,1030.21,36.5,0
"2016-12-24 03:00:21+00",5.7,5.7,,38.3,-140,-210,-5,1030.06,36.5,0
"2016-12-24 03:05:21+00",6.5,7.5,,38.2,-166,-238,-4,1030.1,36.6,0
"2016-12-24 03:10:21+00",7.6,8.6,,38,-242,-253,-4,1030.11,36.6,0
"2016-12-24 03:15:21+00",7.2,8.2,,37.8,-206,-249,2,1030.01,36.5,0
"2016-12-24 03:20:21+00",5.5,6.5,,37.7,-61,-217,2,1029.7,36.7,0
"2016-12-24 03:25:21+00",8.3,10.3,,38.2,-144,-320,-7,1029.75,36.9,0
"2016-12-24 03:30:21+00",8.0,9.0,,38.3,-188,-299,-4,1029.7,37,0
"2016-12-24 03:35:21+00",8.8,9.8,,38.5,-244,-309,2,1029.81,37.2,0
"2016-12-24 03:40:21+00",7.7,9.7,,38.3,-218,-271,5,1029.78,37.2,0
"2016-12-24 03:45:21+00",8.6,9.6,,38.3,-273,-262,-1,1029.91,37.1,0
"2016-12-24 03:50:21+00",9.3,10.3,,38.4,-314,-248,5,1030.06,37.1,0
"2016-12-24 03:55:21+00",9.5,10.5,,38.4,-335,-236,2,1030.09,37.1,0
"2016-12-24 04:00:21+00",7.2,8.2,,38.5,-195,-254,-5,1029.93,37.1,0
"2016-12-24 04:05:21+00",8.0,9.0,,38.6,-230,-279,2,1030.08,37.2,0
"2016-12-24 04:10:21+00",5.6,6.6,,38.8,-123,-204,-5,1029.68,37.2,0
"2016-12-24 04:15:21+00",6.7,7.7,,38.8,-217,-212,1,1029.87,37.2,0
"2016-12-24 04:20:21+00",7.6,8.6,,38.8,-254,-199,4,1029.97,37,0
"2016-12-24 04:25:21+00",7.3,8.3,,38.7,-236,-195,3,1030.1,36.9,0
"2016-12-24 04:30:21+00",4.2,5.2,,38.5,-122,-131,3,1029.98,36.8,0
"2016-12-24 04:35:21+00",6.9,8.9,,38.4,-239,-177,8,1030.25,36.8,0
"2016-12-24 04:40:21+00",7.1,8.1,,38.3,-229,-204,-1,1029.99,36.9,0
"2016-12-24 04:45:21+00",7.7,8.7,,38.2,-206,-280,-5,1029.73,36.9,0
"2016-12-24 04:50:21+00",10.1,11.1,,38.2,-317,-328,1,1029.84,36.9,0
"2016-12-24 04:55:21+00",8.2,9.2,,38.1,-241,-279,-1,1029.67,37,0
"2016-12-24 05:00:21+00",8.1,9.1,,38.2,-215,-292,-4,1029.47,37.2,0
"2016-12-24 05:05:21+00",10.0,12.0,,38.4,-347,-262,4,1029.46,37.4,0
"2016-12-24 05:10:21+00",10.2,12.2,,38.6,-362,-258,9,1029.49,37.5,0
"2016-12-24 05:15:21+00",11.3,13.3,,38.8,-405,-286,3,1029.39,37.6,0
"2016-12-24 05:20:21+00",12.2,13.2,,38.9,-448,-295,16,1029.51,37.7,0
"2016-12-24 05:25:21+00",12.7,14.7,,39.1,-529,-276,13,1029.61,37.9,0
"2016-12-24 05:30:21+00",14.4,17.4,,39.2,-501,-372,20,1029.45,38,0
"2016-12-24 05:35:21+00",12.5,15.5,,39.1,-466,-304,23,1029.36,38.1,0
"2016-12-24 05:40:21+00",12.6,14.6,,38.9,-449,-320,7,1029.37,38.2,0
"2016-12-24 05:45:21+00",8.9,9.9,,38.9,-279,-262,2,1029.08,38.2,0
"2016-12-24 05:50:21+00",10.7,12.7,,38.9,-364,-289,-3,1029.22,38.2,0
"2016-12-24 05:55:21+00",7.8,9.8,,38.9,-224,-267,6,1028.84,38.2,0
"2016-12-24 06:00:21+00",10.4,11.4,,38.9,-334,-313,-4,1029.01,38.2,0
"2016-12-24 06:05:21+00",8.6,9.6,,38.9,-274,-267,-2,1028.76,38.2,0
"2016-12-24 06:10:21+00",8.5,9.5,,38.9,-250,-289,2,1028.78,38.2,0
"2016-12-24 06:15:21+00",8.3,10.3,,38.9,-257,-272,2,1028.64,38.1,0
"2016-12-24 06:20:21+00",7.9,8.9,,38.9,-203,-289,1,1028.41,38.1,0
"2016-12-24 06:25:21+00",8.3,9.3,,38.7,-227,-295,-1,1028.46,38,0
"2016-12-24 06:30:21+00",7.9,8.9,,38.7,-221,-279,2,1028.48,37.9,0
"2016-12-24 06:35:21+00",9.6,10.6,,38.6,-308,-272,1,1028.64,37.8,0
"2016-12-24 06:40:21+00",8.4,10.4,,38.6,-264,-254,5,1028.64,37.8,0
"2016-12-24 06:45:21+00",5.8,6.8,,38.6,-183,-159,-2,1028.39,37.8,0
"2016-12-24 06:50:21+00",5.8,6.8,,38.7,-131,-214,-4,1028.33,37.7,0
"2016-12-24 06:55:21+00",4.7,5.7,,38.8,-31,-194,-14,1027.77,37.7,0
"2016-12-24 07:00:21+00",5.6,6.6,,38.9,-22,-234,-5,1027.7,37.9,0
"2016-12-24 07:05:21+00",3.5,4.5,,38.8,-29,-138,0,1027.88,37.8,0
"2016-12-24 07:10:21+00",4.0,5.0,,38.6,-47,-155,-6,1027.93,37.7,0
"2016-12-24 07:15:21+00",5.6,6.6,,39.2,-2,-227,-5,1027.81,37.6,0
"2016-12-24 07:20:21+00",7.1,10.1,,39.8,12,-300,-16,1027.44,37.7,0
"2016-12-24 07:25:21+00",7.8,9.8,,40,-59,-321,-7,1027.48,38.4,0
"2016-12-24 07:30:21+00",10.7,11.7,,40.1,-221,-408,-2,1027.91,38.6,0
"2016-12-24 07:35:21+00",10.4,11.4,,40.2,-225,-393,-2,1027.86,39,0
"2016-12-24 07:40:21+00",8.8,9.8,,40.2,-229,-323,-1,1027.65,39.3,0
"2016-12-24 07:45:21+00",7.1,8.1,,40.2,-141,-269,-2,1027.53,39.3,0
"2016-12-24 07:50:21+00",7.5,9.5,,40.2,-148,-284,-4,1027.43,39.3,0
"2016-12-24 07:55:21+00",6.1,7.1,,40.3,-88,-240,-2,1027.36,39.4,0
"2016-12-24 08:00:21+00",4.6,5.6,,40.5,-46,-185,-8,1027.07,39.6,0
"2016-12-24 08:05:21+00",4.2,5.2,,40.6,-57,-161,-3,1027.11,39.8,0
"2016-12-24 08:10:21+00",5.1,6.1,,40.7,-54,-203,-7,1027.37,39.9,0
"2016-12-24 08:15:21+00",2.9,3.9,,40.9,-8,-112,-5,1027.12,39.9,0
"2016-12-24 08:20:21+00",5.7,7.7,,41,-55,-232,-8,1027.23,40,0
"2016-12-24 08:25:21+00",9.2,10.2,,41.3,-211,-346,-1,1027.35,39.9,0
"2016-12-24 08:30:21+00",10.9,11.9,,41.1,-351,-319,3,1027.68,39.8,0
"2016-12-24 08:35:21+00",7.7,8.7,,41.1,-109,-305,-5,1027.04,40,0
"2016-12-24 08:40:21+00",8.5,9.5,,41.2,-226,-311,4,1027.26,40.2,0
"2016-12-24 08:45:21+00",9.2,10.2,,41.2,-228,-342,2,1027.42,40.3,0
"2016-12-24 08:50:21+00",10.2,11.2,,41.5,-234,-390,4,1027.19,40.5,0
"2016-12-24 08:55:21+00",10.3,12.3,,41.8,-281,-372,6,1027.18,40.8,0
"2016-12-24 09:00:21+00",10.0,11.0,,41.9,-185,-384,-3,1026.98,41,0
"2016-12-24 09:05:21+00",8.4,11.4,,42,-164,-327,9,1026.75,41.1,0
"2016-12-24 09:10:21+00",10.7,12.7,,42.4,-180,-417,0,1026.48,41.4,0
"2016-12-24 09:15:21+00",13.6,14.6,,42.8,-251,-534,-4,1026.29,41.9,0
"2016-12-24 09:20:21+00",12.9,14.9,,43,-237,-502,-17,1026.16,42.2,0
"2016-12-24 09:25:21+00",10.6,13.6,,43,-123,-435,1,1025.72,42.3,0
"2016-12-24 09:30:21+00",12.2,15.2,,43,-187,-493,-2,1025.77,42.4,0
"2016-12-24 09:35:21+00",11.9,13.9,,43,-299,-447,11,1025.97,42.4,0
"2016-12-24 09:40:21+00",9.6,12.6,,42.9,-133,-388,1,1025.39,42.3,0
"2016-12-24 09:45:21+00",11.2,14.2,,42.9,-106,-469,1,1025.17,42.4,0
"2016-12-24 09:50:21+00",10.7,14.7,,43.2,-83,-457,-22,1024.95,42.7,0
"2016-12-24 09:55:21+00",10.9,14.9,,43.2,-91,-458,-8,1024.77,42.8,0
"2016-12-24 10:00:21+00",13.4,15.4,,43.4,-132,-569,-9,1024.88,42.9,0
"2016-12-24 10:05:21+00",11.8,14.8,,43.5,-88,-499,-12,1024.65,43.1,0
"2016-12-24 10:10:21+00",12.3,15.3,,43.5,-129,-516,1,1024.92,43.1,0
"2016-12-24 10:15:21+00",12.1,15.1,,43.5,-152,-507,-1,1024.94,43,0
"2016-12-24 10:20:21+00",12.1,15.1,,43.6,-158,-496,-2,1024.85,43.1,0
"2016-12-24 10:25:21+00",12.6,15.6,,43.5,-154,-513,7,1024.74,43.1,0
"2016-12-24 10:30:21+00",12.0,14.0,,43.5,-156,-493,7,1024.83,43,0
"2016-12-24 10:35:21+00",12.9,14.9,,43.8,-288,-495,0,1025.03,42.9,0
"2016-12-24 10:40:21+00",12.6,14.6,,43.6,-220,-501,-1,1024.9,42.8,0
"2016-12-24 10:45:21+00",13.2,16.2,,43.7,-202,-531,-13,1024.81,42.9,0
"2016-12-24 10:50:21+00",11.4,14.4,,43.7,-147,-469,7,1024.7,42.9,0
"2016-12-24 10:55:21+00",10.0,13.0,,43.7,-157,-400,14,1024.7,42.9,0
"2016-12-24 11:00:21+00",12.1,15.1,,43.8,-99,-510,-10,1024.25,43,0
"2016-12-24 11:05:21+00",8.9,11.9,,43.7,-91,-375,-4,1024.24,43.1,0
"2016-12-24 11:10:21+00",11.9,13.9,,43.9,-113,-495,-9,1024.08,43.2,0
"2016-12-24 11:15:21+00",12.3,16.3,,44.1,-80,-514,-24,1023.99,43.4,0
"2016-12-24 11:20:21+00",10.4,13.4,,44.1,-46,-442,8,1023.91,43.4,0
"2016-12-24 11:25:21+00",11.5,13.5,,43.9,-57,-484,-10,1023.85,43.3,0
"2016-12-24 11:30:21+00",11.6,14.6,,43.9,-63,-480,-14,1023.75,43.3,0
"2016-12-24 11:35:21+00",12.0,16.0,,44,-67,-508,-27,1023.7,43.3,0
"2016-12-24 11:40:21+00",9.7,12.7,,44.1,-78,-399,-10,1023.68,43.5,0
"2016-12-24 11:45:21+00",9.5,12.5,,44.2,-91,-383,1,1023.66,43.6,0
"2016-12-24 11:50:21+00",10.0,13.0,,44.1,-155,-393,0,1023.7,43.4,0
"2016-12-24 11:55:21+00",10.6,12.6,,44.2,-213,-411,-3,1023.73,43.4,0
"2016-12-24 12:00:21+00",9.2,10.2,,44.1,-212,-345,3,1023.62,43.3,0
"2016-12-24 12:05:21+00",10.0,11.0,,44,-251,-365,2,1023.6,43.1,0
"2016-12-24 12:10:21+00",11.7,12.7,,43.9,-200,-455,-1,1023.56,43.1,0
"2016-12-24 12:15:21+00",9.2,11.2,,44.1,-101,-372,0,1023.35,43.3,0
"2016-12-24 12:20:21+00",9.1,11.1,,43.9,-119,-368,-7,1023.39,43.3,0
"2016-12-24 12:25:21+00",10.2,12.2,,44.2,-155,-409,4,1023.41,43.5,0
"2016-12-24 12:30:21+00",10.7,12.7,,44.3,-119,-442,-7,1023.33,43.7,0
"2016-12-24 12:35:21+00",10.2,13.2,,44.5,-108,-402,-9,1023.16,43.9,0
"2016-12-24 12:40:21+00",9.8,10.8,,44.7,-236,-363,9,1023.33,43.9,0
"2016-12-24 12:45:21+00",9.3,10.3,,44.8,-278,-312,-3,1023.25,44,0
"2016-12-24 12:50:21+00",8.9,9.9,,44.7,-293,-247,5,1023.1,43.9,0
"2016-12-24 12:55:21+00",9.3,10.3,,44.8,-253,-334,-2,1022.9,43.9,0
"2016-12-24 13:00:21+00",9.2,11.2,,45.2,-174,-352,-1,1022.77,44.3,0
"2016-12-24 13:05:21+00",9.4,10.4,,45.7,-245,-338,6,1022.55,44.7,0
"2016-12-24 13:10:21+00",7.2,8.2,,45.6,-200,-254,8,1022.5,44.8,0
"2016-12-24 13:15:21+00",7.1,8.1,,45.4,-223,-210,8,1022.51,44.7,0
"2016-12-24 13:20:21+00",7.0,8.0,,45.2,-209,-233,3,1022.46,44.6,0
"2016-12-24 13:25:21+00",6.9,7.9,,45.2,-243,-170,13,1022.41,44.4,0
"2016-12-24 13:30:21+00",7.2,8.2,,45,-309,-115,17,1022.44,44.2,0
"2016-12-24 13:35:21+00",7.0,8.0,,45.1,-223,-215,4,1022.3,44.1,0
"2016-12-24 13:40:21+00",8.2,9.2,,45.5,-233,-283,7,1022.22,44.3,0
"2016-12-24 13:45:21+00",8.3,10.3,,45.7,-172,-308,6,1022.14,44.7,0
"2016-12-24 13:50:21+00",10.2,12.2,,46.1,-190,-395,-3,1022,45.3,0
"2016-12-24 13:55:21+00",10.1,12.1,,46.3,-182,-387,-1,1021.92,45.5,0
"2016-12-24 14:00:21+00",9.8,10.8,,46.4,-253,-357,2,1021.92,45.7,0
"2016-12-24 14:05:21+00",10.1,12.1,,46.5,-201,-377,-1,1021.79,45.7,0
"2016-12-24 14:10:21+00",11.1,13.1,,46.7,-241,-412,-1,1021.6,46,0.1
"2016-12-24 14:15:21+00",12.0,14.0,,47.1,-236,-457,-6,1021.67,46.4,0
"2016-12-24 14:20:21+00",11.5,13.5,,47.3,-289,-426,12,1021.59,46.6,0
"2016-12-24 14:25:21+00",11.5,14.5,,47.4,-292,-412,-3,1021.45,46.7,0
"2016-12-24 14:30:21+00",15.0,19.0,,48,-268,-582,3,1021.35,47.2,0
"2016-12-24 14:35:21+00",15.5,19.5,,48.3,-252,-608,10,1021.17,47.6,0
"2016-12-24 14:40:21+00",14.5,18.5,,48.5,-203,-580,1,1021.01,47.9,0
"2016-12-24 14:45:21+00",13.9,16.9,,48.9,-325,-519,25,1021.1,48.1,0
"2016-12-24 14:50:21+00",17.0,21.0,,48.9,-423,-615,8,1021.02,48,0
"2016-12-24 14:55:21+00",17.1,21.1,,49.5,-349,-652,22,1020.62,48.6,0
"2016-12-24 15:00:21+00",16.5,21.5,,49.5,-265,-645,14,1020.58,48.7,0
"2016-12-24 15:05:21+00",19.7,29.7,,49.7,-257,-788,-2,1020.33,49,0
"2016-12-24 15:10:21+00",18.6,21.6,,49.9,-273,-745,15,1020.08,49.2,0
"2016-12-24 15:15:21+00",20.5,26.5,,50,-293,-809,13,1019.93,49.4,0
"2016-12-24 15:20:21+00",21.2,25.2,,50.3,-220,-866,-11,1019.8,49.7,0
"2016-12-24 15:25:21+00",20.7,25.7,,50.3,-256,-841,5,1019.75,49.7,0
"2016-12-24 15:30:21+00",22.1,28.1,,50.2,-338,-830,28,1019.62,49.6,0
"2016-12-24 15:35:21+00",21.9,29.9,,50.4,-482,-822,9,1019.66,49.6,0
"2016-12-24 15:40:21+00",24.0,27.0,,50.2,-495,-930,-4,1019.53,49.5,0
"2016-12-24 15:45:21+00",24.2,29.2,,50.5,-473,-921,1,1019.3,49.7,0
"2016-12-24 15:50:21+00",24.7,28.7,,50.9,-652,-1187,-141,1019.31,50.1,0
"2016-12-24 15:55:21+00",26.0,31.0,,50.9,-591,-965,6,1019.26,50,0
"2016-12-24 16:00:21+00",25.3,29.3,,51.1,-689,-940,12,1019.2,50.2,0
"2016-12-24 16:05:21+00",21.8,24.8,,50.8,-674,-783,-17,1019.2,49.9,0
"2016-12-24 16:10:21+00",27.1,31.1,,50.9,-902,-991,-77,1019.06,49.9,0
"2016-12-24 16:15:21+00",23.7,27.7,,50.4,-755,-692,11,1018.91,49.6,0
"2016-12-24 16:20:21+00",23.3,26.3,,50,-838,-598,36,1018.95,49.2,0
"2016-12-24 16:25:21+00",19.8,23.8,,49.1,-811,-426,40,1019.17,48.6,0
"2016-12-24 16:30:21+00",19.1,22.1,,48.5,-784,-324,77,1019.11,48,0
"2016-12-24 16:35:21+00",22.5,26.5,,48.4,-865,-517,58,1019.06,47.9,0
"2016-12-24 16:40:21+00",22.4,27.4,,48.2,-858,-563,50,1018.91,47.5,0
"2016-12-24 16:45:21+00",17.6,21.6,,46.7,-767,180,10,1019.04,46.7,0
"2016-12-24 16:50:21+00",14.7,19.7,,45.4,-520,391,83,1019.08,45.2,0
"2016-12-24 16:55:21+00",9.3,11.3,,43.2,-338,221,31,1019.3,43.6,0
"2016-12-24 17:00:21+00",8.4,9.4,,42.8,-308,200,27,1019.18,43,0
"2016-12-24 17:05:21+00",11.5,13.5,,42.7,-432,278,28,1019.12,42.7,0
"2016-12-24 17:10:21+00",14.2,16.2,,43,-541,341,44,1019.13,42.8,0
"2016-12-24 17:15:21+00",12.9,13.9,,43.5,-517,245,38,1019.02,43.2,0
"2016-12-24 17:20:21+00",12.3,13.3,,43.6,-528,155,36,1018.9,43.3,0
"2016-12-24 17:25:21+00",12.1,14.1,,44.6,-537,8,27,1019.02,43.4,0
"2016-12-24 17:30:21+00",14.1,16.1,,45.8,-604,-114,28,1018.93,44.7,0
"2016-12-24 17:35:21+00",12.3,14.3,,46.1,-531,-208,24,1018.75,45.3,0
"2016-12-24 17:40:21+00",12.2,14.2,,45.9,-515,-112,22,1018.94,45.4,0
"2016-12-24 17:45:21+00",14.2,16.2,,46.2,-601,-183,23,1018.78,45.5,0
"2016-12-24 17:50:21+00",13.5,15.5,,46.2,-569,-176,42,1018.86,45.6,0
"2016-12-24 17:55:21+00",13.0,15.0,,46.3,-556,-168,15,1018.71,45.6,0
"2016-12-24 18:00:21+00",13.4,16.4,,46.6,-569,-191,27,1018.73,45.7,0
"2016-12-24 18:05:21+00",13.7,15.7,,46.7,-595,-228,16,1018.55,45.7,0
"2016-12-24 18:10:21+00",12.4,15.4,,46.7,-523,-224,17,1018.37,45.7,0.2
"2016-12-24 18:15:21+00",13.7,15.7,,46.6,-570,-129,25,1018.67,45.6,0
"2016-12-24 18:20:21+00",14.0,16.0,,46.6,-584,-128,20,1018.51,45.5,0
"2016-12-24 18:25:21+00",14.2,16.2,,46.8,-593,-131,36,1018.46,45.6,0
"2016-12-24 18:30:21+00",15.8,18.8,,46.7,-662,-133,23,1018.39,45.6,0
"2016-12-24 18:35:21+00",17.3,19.3,,46.9,-722,-201,29,1018.59,45.6,0
"2016-12-24 18:40:21+00",19.0,22.0,,46.9,-801,-150,44,1018.53,45.6,0
"2016-12-24 18:45:21+00",16.5,18.5,,46.7,-702,-100,21,1018.72,45.5,0
"2016-12-24 18:50:21+00",15.0,18.0,,46.6,-665,-4,40,1018.67,45.3,0
"2016-12-24 18:55:21+00",13.2,15.2,,46.6,-568,-16,38,1018.87,45.4,0
"2016-12-24 19:00:21+00",14.5,17.5,,46.4,-645,40,39,1019,45.2,0
"2016-12-24 19:05:21+00",12.7,13.7,,45.8,-552,97,28,1019.15,44.8,0
"2016-12-24 19:10:21+00",13.8,16.8,,45.7,-610,51,33,1019.17,44.7,0
"2016-12-24 19:15:21+00",13.2,15.2,,45.6,-579,52,39,1019.15,44.6,0
"2016-12-24 19:20:21+00",14.2,16.2,,45.4,-626,67,34,1019.16,44.4,7.3
"2016-12-24 19:25:21+00",14.9,16.9,,45.7,-664,78,37,1019.04,44.6,1.2
"2016-12-24 19:30:21+00",13.5,15.5,,45.6,-598,51,33,1019.09,44.6,0.3
"2016-12-24 19:35:21+00",13.2,14.2,,45.3,-566,156,43,1019.15,44.4,0.9
"2016-12-24 19:40:21+00",10.4,12.4,,44.8,-444,154,21,1019.11,44.1,2.7
"2016-12-24 19:45:21+00",12.1,14.1,,44.5,-510,182,33,1019.21,43.8,0.6
"2016-12-24 19:50:21+00",13.6,15.6,,44.3,-562,225,26,1019.2,43.7,1.3
"2016-12-24 19:55:21+00",13.0,15.0,,44.5,-526,251,29,1019.46,43.9,1.2
"2016-12-24 20:00:21+00",13.7,16.7,,44.5,-559,257,37,1019.48,43.9,0
"2016-12-24 20:05:21+00",13.5,15.5,,44.6,-563,208,25,1019.54,43.9,5.3
"2016-12-24 20:10:21+00",11.8,13.8,,44.2,-470,217,34,1019.53,43.6,0
"2016-12-24 20:15:21+00",11.3,13.3,,44.1,-463,199,28,1019.66,43.6,14.5
"2016-12-24 20:20:21+00",11.8,13.8,,44,-459,256,25,1019.75,43.6,0
"2016-12-24 20:25:21+00",12.2,13.2,,44.1,-502,222,30,1019.66,43.5,9.1
"2016-12-24 20:30:21+00",12.9,13.9,,44.2,-530,216,40,1019.88,43.6,0
"2016-12-24 20:35:21+00",13.6,14.6,,44.2,-569,231,32,1020.02,43.4,0
"2016-12-24 20:40:21+00",13.2,15.2,,44.2,-544,250,33,1020.12,43.4,0
"2016-12-24 20:45:21+00",13.0,14.0,,44.1,-546,196,36,1020.16,43.2,0
"2016-12-24 20:50:21+00",11.2,12.2,,43.9,-475,166,31,1020.3,43,0
"2016-12-24 20:55:21+00",11.2,12.2,,43.6,-471,167,30,1020.31,42.7,0.8
"2016-12-24 21:00:21+00",11.2,12.2,,43.6,-472,174,27,1020.42,42.6,0.2
"2016-12-24 21:05:21+00",11.4,13.4,,43.5,-451,226,21,1020.64,42.6,0
"2016-12-24 21:10:21+00",12.3,14.3,,43.7,-486,259,24,1020.58,42.5,0
"2016-12-24 21:15:21+00",12.6,13.6,,43.8,-480,278,22,1020.67,42.6,0
"2016-12-24 21:20:21+00",11.7,12.7,,44,-460,251,22,1020.65,42.5,0
"2016-12-24 21:25:21+00",11.0,12.0,,44,-435,235,18,1020.7,42.6,0
"2016-12-24 21:30:21+00",10.1,11.1,,43.8,-390,237,17,1020.84,42.4,0
"2016-12-24 21:35:21+00",10.0,11.0,,43.7,-377,229,17,1020.87,42.3,0
"2016-12-24 21:40:21+00",9.6,10.6,,43.6,-320,275,21,1021.25,42.1,0
"2016-12-24 21:45:21+00",8.9,9.9,,43.5,-324,234,18,1021.21,41.8,0
"2016-12-24 21:50:21+00",9.0,10.0,,43.5,-347,199,19,1021.27,41.6,0
"2016-12-24 21:55:21+00",8.3,9.3,,43.5,-334,158,16,1021.39,41.5,0
"2016-12-24 22:00:21+00",9.0,10.0,,43.4,-366,156,11,1021.45,41.3,0
"2016-12-24 22:05:21+00",9.1,10.1,,43.3,-379,148,15,1021.42,41,0
"2016-12-24 22:10:21+00",9.2,10.2,,43.4,-376,150,19,1021.53,40.9,0
"2016-12-24 22:15:21+00",9.7,10.7,,43.3,-414,129,17,1021.55,40.6,0
"2016-12-24 22:20:21+00",8.6,9.6,,43.1,-358,133,15,1021.62,40.5,0
"2016-12-24 22:25:21+00",8.3,9.3,,43.2,-349,135,18,1021.65,40.5,0
"2016-12-24 22:30:21+00",8.6,8.6,,43.4,-365,118,16,1021.72,40.3,0
"2016-12-24 22:35:21+00",9.5,9.5,,43.5,-390,178,21,1021.78,40,0
"2016-12-24 22:40:21+00",9.5,9.5,,43.5,-366,213,21,1021.86,39.9,0
"2016-12-24 22:45:21+00",9.7,10.7,,43.6,-382,211,23,1021.77,40.1,0
"2016-12-24 22:50:21+00",9.7,10.7,,43.3,-384,199,23,1021.87,40.3,0
"2016-12-24 22:55:21+00",8.4,8.4,,42.8,-334,166,20,1021.88,40.1,0
"2016-12-24 23:00:21+00",8.3,8.3,,42.5,-329,151,15,1021.93,39.6,0
"2016-12-24 23:05:21+00",8.3,9.3,,42.5,-344,136,17,1022.16,39.1,0
"2016-12-24 23:10:21+00",8.8,8.8,,43,-380,87,17,1022.1,38.8,0
"2016-12-24 23:15:21+00",8.8,8.8,,43.2,-390,62,19,1022.3,38.8,0
"2016-12-24 23:20:21+00",9.2,10.2,,43.1,-409,52,21,1022.28,39.2,0
"2016-12-24 23:25:21+00",6.4,7.4,,42,-274,24,12,1022.23,39.3,0
"2016-12-24 23:30:21+00",9.3,10.3,,42.4,-408,95,20,1022.37,39,0
"2016-12-24 23:35:21+00",9.7,10.7,,42,-422,96,20,1022.41,38.9,0
"2016-12-24 23:40:21+00",10.4,10.4,,42,-448,124,21,1022.54,38.7,0
"2016-12-24 23:45:21+00",8.5,8.5,,40.5,-355,117,11,1022.57,38.4,0
"2016-12-24 23:50:21+00",7.3,8.3,,40,-303,97,8,1022.68,38,0
"2016-12-24 23:55:21+00",6.0,7.0,,39.7,-242,103,10,1022.71,37.8,0
